owner,sensor,date,latitude,longitude,relative_humidity,qcFlag 
SCCF RECON,ioos:station:SCCF:53:1,2016-01-01T00:00:00Z,26.6493,-81.8810,74.0,1111122 
SCCF RECON,ioos:station:SCCF:53:1,2016-01-01T00:15:00Z,26.6493,-81.8810,74.7,1111122 
SCCF RECON,ioos:station:SCCF:53:1,2016-01-01T00:30:00Z,26.6493,-81.8810,73.6,1111122 
SCCF RECON,ioos:station:SCCF:53:1,2016-01-01T00:45:00Z,26.6493,-81.8810,78.4,1111122 
SCCF RECON,ioos:station:SCCF:53:1,2016-01-01T01:00:00Z,26.6493,-81.8810,80.4,1111122 
SCCF RECON,ioos:station:SCCF:53:1,2016-01-01T01:15:00Z,26.6493,-81.8810,80.3,1111122 
SCCF RECON,ioos:station:SCCF:53:1,2016-01-01T01:30:00Z,26.6493,-81.8810,80.4,1111122 
SCCF RECON,ioos:station:SCCF:53:1,2016-01-01T01:45:00Z,26.6493,-81.8810,79.9,1111122 
SCCF RECON,ioos:station:SCCF:53:1,2016-01-01T02:00:00Z,26.6493,-81.8810,80.1,1111122 
SCCF RECON,ioos:station:SCCF:53:1,2016-01-01T02:15:00Z,26.6493,-81.8810,80.2,1111122 
SCCF RECON,ioos:station:SCCF:53:1,2016-01-01T02:30:00Z,26.6493,-81.8810,80.9,1111122 
SCCF RECON,ioos:station:SCCF:53:1,2016-01-01T02:45:00Z,26.6493,-81.8810,81.8,1111122 
SCCF RECON,ioos:station:SCCF:53:1,2016-01-01T03:00:00Z,26.6493,-81.8810,83.0,1111122 
SCCF RECON,ioos:station:SCCF:53:1,2016-01-01T03:15:00Z,26.6493,-81.8810,82.9,1111122 
SCCF RECON,ioos:station:SCCF:53:1,2016-01-01T03:30:00Z,26.6493,-81.8810,82.5,1111122 
SCCF RECON,ioos:station:SCCF:53:1,2016-01-01T03:45:00Z,26.6493,-81.8810,83.7,1111122 
SCCF RECON,ioos:station:SCCF:53:1,2016-01-01T04:00:00Z,26.6493,-81.8810,83.8,1111122 
SCCF RECON,ioos:station:SCCF:53:1,2016-01-01T04:15:00Z,26.6493,-81.8810,83.3,1111122 
SCCF RECON,ioos:station:SCCF:53:1,2016-01-01T04:30:00Z,26.6493,-81.8810,85.8,1111122 
SCCF RECON,ioos:station:SCCF:53:1,2016-01-01T04:45:00Z,26.6493,-81.8810,87.0,1111122 
SCCF RECON,ioos:station:SCCF:53:1,2016-01-01T05:00:00Z,26.6493,-81.8810,87.6,1111122 
SCCF RECON,ioos:station:SCCF:53:1,2016-01-01T05:15:00Z,26.6493,-81.8810,87.7,1111122 
SCCF RECON,ioos:station:SCCF:53:1,2016-01-01T05:30:00Z,26.6493,-81.8810,86.5,1111122 
SCCF RECON,ioos:station:SCCF:53:1,2016-01-01T05:45:00Z,26.6493,-81.8810,86.4,1111122 
SCCF RECON,ioos:station:SCCF:53:1,2016-01-01T06:00:00Z,26.6493,-81.8810,88.4,1111122 
SCCF RECON,ioos:station:SCCF:53:1,2016-01-01T06:15:00Z,26.6493,-81.8810,86.1,1111122 
SCCF RECON,ioos:station:SCCF:53:1,2016-01-01T06:30:00Z,26.6493,-81.8810,85.4,1111122 
SCCF RECON,ioos:station:SCCF:53:1,2016-01-01T06:45:00Z,26.6493,-81.8810,87.0,1111122 
SCCF RECON,ioos:station:SCCF:53:1,2016-01-01T07:00:00Z,26.6493,-81.8810,87.5,1111122 
SCCF RECON,ioos:station:SCCF:53:1,2016-01-01T07:15:00Z,26.6493,-81.8810,86.6,1111122 
SCCF RECON,ioos:station:SCCF:53:1,2016-01-01T07:30:00Z,26.6493,-81.8810,86.3,1111122 
SCCF RECON,ioos:station:SCCF:53:1,2016-01-01T07:45:00Z,26.6493,-81.8810,86.0,1111122 
SCCF RECON,ioos:station:SCCF:53:1,2016-01-01T08:00:00Z,26.6493,-81.8810,85.7,1111122 
SCCF RECON,ioos:station:SCCF:53:1,2016-01-01T08:15:00Z,26.6493,-81.8810,86.4,1111122 
SCCF RECON,ioos:station:SCCF:53:1,2016-01-01T08:30:00Z,26.6493,-81.8810,86.6,1111122 
SCCF RECON,ioos:station:SCCF:53:1,2016-01-01T08:45:00Z,26.6493,-81.8810,86.2,1111122 
SCCF RECON,ioos:station:SCCF:53:1,2016-01-01T09:00:00Z,26.6493,-81.8810,86.1,1111122 
SCCF RECON,ioos:station:SCCF:53:1,2016-01-01T09:15:00Z,26.6493,-81.8810,83.8,1111122 
SCCF RECON,ioos:station:SCCF:53:1,2016-01-01T09:30:00Z,26.6493,-81.8810,83.8,1111122 
SCCF RECON,ioos:station:SCCF:53:1,2016-01-01T09:45:00Z,26.6493,-81.8810,83.2,1111122 
SCCF RECON,ioos:station:SCCF:53:1,2016-01-01T10:00:00Z,26.6493,-81.8810,84.2,1111122 
SCCF RECON,ioos:station:SCCF:53:1,2016-01-01T10:15:00Z,26.6493,-81.8810,85.7,1111122 
SCCF RECON,ioos:station:SCCF:53:1,2016-01-01T10:30:00Z,26.6493,-81.8810,87.6,1111122 
SCCF RECON,ioos:station:SCCF:53:1,2016-01-01T10:45:00Z,26.6493,-81.8810,88.9,1111122 
SCCF RECON,ioos:station:SCCF:53:1,2016-01-01T11:00:00Z,26.6493,-81.8810,89.6,1111122 
SCCF RECON,ioos:station:SCCF:53:1,2016-01-01T11:15:00Z,26.6493,-81.8810,90.5,1111122 
SCCF RECON,ioos:station:SCCF:53:1,2016-01-01T11:30:00Z,26.6493,-81.8810,90.8,1111122 
SCCF RECON,ioos:station:SCCF:53:1,2016-01-01T11:45:00Z,26.6493,-81.8810,91.2,1111122 
SCCF RECON,ioos:station:SCCF:53:1,2016-01-01T12:00:00Z,26.6493,-81.8810,92.1,1111122 
SCCF RECON,ioos:station:SCCF:53:1,2016-01-01T12:15:00Z,26.6493,-81.8810,92.6,1111122 
SCCF RECON,ioos:station:SCCF:53:1,2016-01-01T12:30:00Z,26.6493,-81.8810,93.3,1111122 
SCCF RECON,ioos:station:SCCF:53:1,2016-01-01T12:45:00Z,26.6493,-81.8810,92.6,1111122 
SCCF RECON,ioos:station:SCCF:53:1,2016-01-01T13:00:00Z,26.6493,-81.8810,91.6,1111122 
SCCF RECON,ioos:station:SCCF:53:1,2016-01-01T13:15:00Z,26.6493,-81.8810,90.1,1111122 
SCCF RECON,ioos:station:SCCF:53:1,2016-01-01T13:30:00Z,26.6493,-81.8810,90.0,1111122 
SCCF RECON,ioos:station:SCCF:53:1,2016-01-01T13:45:00Z,26.6493,-81.8810,89.0,1111122 
SCCF RECON,ioos:station:SCCF:53:1,2016-01-01T14:00:00Z,26.6493,-81.8810,87.0,1111122 
SCCF RECON,ioos:station:SCCF:53:1,2016-01-01T14:15:00Z,26.6493,-81.8810,85.8,1111122 
SCCF RECON,ioos:station:SCCF:53:1,2016-01-01T14:30:00Z,26.6493,-81.8810,84.6,1111122 
SCCF RECON,ioos:station:SCCF:53:1,2016-01-01T14:45:00Z,26.6493,-81.8810,84.2,1111122 
SCCF RECON,ioos:station:SCCF:53:1,2016-01-01T15:00:00Z,26.6493,-81.8810,83.2,1111122 
SCCF RECON,ioos:station:SCCF:53:1,2016-01-01T15:15:00Z,26.6493,-81.8810,82.1,1111122 
SCCF RECON,ioos:station:SCCF:53:1,2016-01-01T15:30:00Z,26.6493,-81.8810,79.1,1111122 
SCCF RECON,ioos:station:SCCF:53:1,2016-01-01T15:45:00Z,26.6493,-81.8810,78.5,1111122 
SCCF RECON,ioos:station:SCCF:53:1,2016-01-01T16:00:00Z,26.6493,-81.8810,79.3,1111122 
SCCF RECON,ioos:station:SCCF:53:1,2016-01-01T16:15:00Z,26.6493,-81.8810,79.9,1111122 
SCCF RECON,ioos:station:SCCF:53:1,2016-01-01T16:30:00Z,26.6493,-81.8810,78.2,1111122 
SCCF RECON,ioos:station:SCCF:53:1,2016-01-01T16:45:00Z,26.6493,-81.8810,76.6,1111122 
SCCF RECON,ioos:station:SCCF:53:1,2016-01-01T17:00:00Z,26.6493,-81.8810,75.2,1111122 
SCCF RECON,ioos:station:SCCF:53:1,2016-01-01T17:15:00Z,26.6493,-81.8810,72.5,1111122 
SCCF RECON,ioos:station:SCCF:53:1,2016-01-01T17:30:00Z,26.6493,-81.8810,69.7,1111122 
SCCF RECON,ioos:station:SCCF:53:1,2016-01-01T17:45:00Z,26.6493,-81.8810,69.0,1111122 
SCCF RECON,ioos:station:SCCF:53:1,2016-01-01T18:00:00Z,26.6493,-81.8810,65.1,1111122 
SCCF RECON,ioos:station:SCCF:53:1,2016-01-01T18:15:00Z,26.6493,-81.8810,65.6,1111122 
SCCF RECON,ioos:station:SCCF:53:1,2016-01-01T18:30:00Z,26.6493,-81.8810,65.2,1111122 
SCCF RECON,ioos:station:SCCF:53:1,2016-01-01T18:45:00Z,26.6493,-81.8810,66.6,1111122 
SCCF RECON,ioos:station:SCCF:53:1,2016-01-01T19:00:00Z,26.6493,-81.8810,66.9,1111122 
SCCF RECON,ioos:station:SCCF:53:1,2016-01-01T19:15:00Z,26.6493,-81.8810,68.3,1111122 
SCCF RECON,ioos:station:SCCF:53:1,2016-01-01T19:30:00Z,26.6493,-81.8810,68.3,1111122 
SCCF RECON,ioos:station:SCCF:53:1,2016-01-01T19:45:00Z,26.6493,-81.8810,66.9,1111122 
SCCF RECON,ioos:station:SCCF:53:1,2016-01-01T20:00:00Z,26.6493,-81.8810,68.4,1111122 
SCCF RECON,ioos:station:SCCF:53:1,2016-01-01T20:15:00Z,26.6493,-81.8810,68.1,1111122 
SCCF RECON,ioos:station:SCCF:53:1,2016-01-01T20:30:00Z,26.6493,-81.8810,67.5,1111122 
SCCF RECON,ioos:station:SCCF:53:1,2016-01-01T20:45:00Z,26.6493,-81.8810,68.3,1111122 
SCCF RECON,ioos:station:SCCF:53:1,2016-01-01T21:00:00Z,26.6493,-81.8810,69.8,1111122 
SCCF RECON,ioos:station:SCCF:53:1,2016-01-01T21:15:00Z,26.6493,-81.8810,66.5,1111122 
SCCF RECON,ioos:station:SCCF:53:1,2016-01-01T21:30:00Z,26.6493,-81.8810,69.2,1111122 
SCCF RECON,ioos:station:SCCF:53:1,2016-01-01T21:45:00Z,26.6493,-81.8810,70.7,1111122 
SCCF RECON,ioos:station:SCCF:53:1,2016-01-01T22:00:00Z,26.6493,-81.8810,70.6,1111122 
SCCF RECON,ioos:station:SCCF:53:1,2016-01-01T22:15:00Z,26.6493,-81.8810,72.2,1111122 
SCCF RECON,ioos:station:SCCF:53:1,2016-01-01T22:30:00Z,26.6493,-81.8810,75.1,1111122 
SCCF RECON,ioos:station:SCCF:53:1,2016-01-01T22:45:00Z,26.6493,-81.8810,76.2,1111122 
SCCF RECON,ioos:station:SCCF:53:1,2016-01-01T23:00:00Z,26.6493,-81.8810,75.1,1111122 
SCCF RECON,ioos:station:SCCF:53:1,2016-01-01T23:15:00Z,26.6493,-81.8810,77.5,1111122 
SCCF RECON,ioos:station:SCCF:53:1,2016-01-01T23:30:00Z,26.6493,-81.8810,78.5,1111122 
SCCF RECON,ioos:station:SCCF:53:1,2016-01-01T23:45:00Z,26.6493,-81.8810,79.0,1111122 
SCCF RECON,ioos:station:SCCF:53:1,2016-01-02T00:00:00Z,26.6493,-81.8810,80.5,1111122 
SCCF RECON,ioos:station:SCCF:53:1,2016-01-02T00:15:00Z,26.6493,-81.8810,83.5,1111122 
SCCF RECON,ioos:station:SCCF:53:1,2016-01-02T00:30:00Z,26.6493,-81.8810,84.8,1111122 
SCCF RECON,ioos:station:SCCF:53:1,2016-01-02T00:45:00Z,26.6493,-81.8810,85.8,1111122 
SCCF RECON,ioos:station:SCCF:53:1,2016-01-02T01:00:00Z,26.6493,-81.8810,86.4,1111122 
SCCF RECON,ioos:station:SCCF:53:1,2016-01-02T01:15:00Z,26.6493,-81.8810,87.8,1111122 
SCCF RECON,ioos:station:SCCF:53:1,2016-01-02T01:30:00Z,26.6493,-81.8810,88.4,1111122 
SCCF RECON,ioos:station:SCCF:53:1,2016-01-02T01:45:00Z,26.6493,-81.8810,88.8,1111122 
SCCF RECON,ioos:station:SCCF:53:1,2016-01-02T02:00:00Z,26.6493,-81.8810,89.8,1111122 
SCCF RECON,ioos:station:SCCF:53:1,2016-01-02T02:15:00Z,26.6493,-81.8810,90.4,1111122 
SCCF RECON,ioos:station:SCCF:53:1,2016-01-02T02:30:00Z,26.6493,-81.8810,91.1,1111122 
SCCF RECON,ioos:station:SCCF:53:1,2016-01-02T02:45:00Z,26.6493,-81.8810,91.6,1111122 
SCCF RECON,ioos:station:SCCF:53:1,2016-01-02T03:00:00Z,26.6493,-81.8810,92.3,1111122 
SCCF RECON,ioos:station:SCCF:53:1,2016-01-02T03:15:00Z,26.6493,-81.8810,92.7,1111122 
SCCF RECON,ioos:station:SCCF:53:1,2016-01-02T03:30:00Z,26.6493,-81.8810,93.0,1111122 
SCCF RECON,ioos:station:SCCF:53:1,2016-01-02T03:45:00Z,26.6493,-81.8810,93.4,1111122 
SCCF RECON,ioos:station:SCCF:53:1,2016-01-02T04:00:00Z,26.6493,-81.8810,93.7,1111122 
SCCF RECON,ioos:station:SCCF:53:1,2016-01-02T04:15:00Z,26.6493,-81.8810,93.9,1111122 
SCCF RECON,ioos:station:SCCF:53:1,2016-01-02T04:30:00Z,26.6493,-81.8810,94.2,1111122 
SCCF RECON,ioos:station:SCCF:53:1,2016-01-02T04:45:00Z,26.6493,-81.8810,94.3,1111122 
SCCF RECON,ioos:station:SCCF:53:1,2016-01-02T05:00:00Z,26.6493,-81.8810,94.6,1111122 
SCCF RECON,ioos:station:SCCF:53:1,2016-01-02T05:15:00Z,26.6493,-81.8810,94.7,1111122 
SCCF RECON,ioos:station:SCCF:53:1,2016-01-02T05:30:00Z,26.6493,-81.8810,94.7,1111122 
SCCF RECON,ioos:station:SCCF:53:1,2016-01-02T05:45:00Z,26.6493,-81.8810,94.8,1111122 
SCCF RECON,ioos:station:SCCF:53:1,2016-01-02T06:00:00Z,26.6493,-81.8810,94.9,1111122 
SCCF RECON,ioos:station:SCCF:53:1,2016-01-02T06:15:00Z,26.6493,-81.8810,95.2,1111122 
SCCF RECON,ioos:station:SCCF:53:1,2016-01-02T06:30:00Z,26.6493,-81.8810,95.5,1111122 
SCCF RECON,ioos:station:SCCF:53:1,2016-01-02T06:45:00Z,26.6493,-81.8810,95.6,1111122 
SCCF RECON,ioos:station:SCCF:53:1,2016-01-02T07:00:00Z,26.6493,-81.8810,95.9,1111122 
SCCF RECON,ioos:station:SCCF:53:1,2016-01-02T07:15:00Z,26.6493,-81.8810,96.2,1111122 
SCCF RECON,ioos:station:SCCF:53:1,2016-01-02T07:30:00Z,26.6493,-81.8810,96.3,1111122 
SCCF RECON,ioos:station:SCCF:53:1,2016-01-02T07:45:00Z,26.6493,-81.8810,96.4,1111122 
SCCF RECON,ioos:station:SCCF:53:1,2016-01-02T08:00:00Z,26.6493,-81.8810,96.7,1111122 
SCCF RECON,ioos:station:SCCF:53:1,2016-01-02T08:15:00Z,26.6493,-81.8810,96.8,1111122 
SCCF RECON,ioos:station:SCCF:53:1,2016-01-02T08:30:00Z,26.6493,-81.8810,97.0,1111122 
SCCF RECON,ioos:station:SCCF:53:1,2016-01-02T08:45:00Z,26.6493,-81.8810,97.2,1111122 
SCCF RECON,ioos:station:SCCF:53:1,2016-01-02T09:00:00Z,26.6493,-81.8810,97.2,1111122 
SCCF RECON,ioos:station:SCCF:53:1,2016-01-02T09:15:00Z,26.6493,-81.8810,97.4,1111122 
SCCF RECON,ioos:station:SCCF:53:1,2016-01-02T09:30:00Z,26.6493,-81.8810,97.5,1111122 
SCCF RECON,ioos:station:SCCF:53:1,2016-01-02T09:45:00Z,26.6493,-81.8810,97.4,1111122 
SCCF RECON,ioos:station:SCCF:53:1,2016-01-02T10:00:00Z,26.6493,-81.8810,97.4,1111122 
SCCF RECON,ioos:station:SCCF:53:1,2016-01-02T10:15:00Z,26.6493,-81.8810,97.4,1111122 
SCCF RECON,ioos:station:SCCF:53:1,2016-01-02T10:30:00Z,26.6493,-81.8810,97.3,1111122 
SCCF RECON,ioos:station:SCCF:53:1,2016-01-02T10:45:00Z,26.6493,-81.8810,97.1,1111122 
SCCF RECON,ioos:station:SCCF:53:1,2016-01-02T11:00:00Z,26.6493,-81.8810,96.9,1111122 
SCCF RECON,ioos:station:SCCF:53:1,2016-01-02T11:15:00Z,26.6493,-81.8810,96.7,1111122 
SCCF RECON,ioos:station:SCCF:53:1,2016-01-02T11:30:00Z,26.6493,-81.8810,96.8,1111122 
SCCF RECON,ioos:station:SCCF:53:1,2016-01-02T11:45:00Z,26.6493,-81.8810,96.7,1111122 
SCCF RECON,ioos:station:SCCF:53:1,2016-01-02T12:00:00Z,26.6493,-81.8810,96.5,1111122 
SCCF RECON,ioos:station:SCCF:53:1,2016-01-02T12:15:00Z,26.6493,-81.8810,95.4,1111122 
SCCF RECON,ioos:station:SCCF:53:1,2016-01-02T12:30:00Z,26.6493,-81.8810,93.3,1111122 
SCCF RECON,ioos:station:SCCF:53:1,2016-01-02T12:45:00Z,26.6493,-81.8810,91.3,1111122 
SCCF RECON,ioos:station:SCCF:53:1,2016-01-02T13:00:00Z,26.6493,-81.8810,91.3,1111122 
SCCF RECON,ioos:station:SCCF:53:1,2016-01-02T13:15:00Z,26.6493,-81.8810,91.5,1111122 
SCCF RECON,ioos:station:SCCF:53:1,2016-01-02T13:30:00Z,26.6493,-81.8810,90.6,1111122 
SCCF RECON,ioos:station:SCCF:53:1,2016-01-02T13:45:00Z,26.6493,-81.8810,89.2,1111122 
SCCF RECON,ioos:station:SCCF:53:1,2016-01-02T14:00:00Z,26.6493,-81.8810,87.4,1111122 
SCCF RECON,ioos:station:SCCF:53:1,2016-01-02T14:15:00Z,26.6493,-81.8810,87.2,1111122 
SCCF RECON,ioos:station:SCCF:53:1,2016-01-02T14:30:00Z,26.6493,-81.8810,86.1,1111122 
SCCF RECON,ioos:station:SCCF:53:1,2016-01-02T14:45:00Z,26.6493,-81.8810,82.5,1111122 
SCCF RECON,ioos:station:SCCF:53:1,2016-01-02T15:00:00Z,26.6493,-81.8810,82.3,1111122 
SCCF RECON,ioos:station:SCCF:53:1,2016-01-02T15:15:00Z,26.6493,-81.8810,83.6,1111122 
SCCF RECON,ioos:station:SCCF:53:1,2016-01-02T15:30:00Z,26.6493,-81.8810,83.9,1111122 
SCCF RECON,ioos:station:SCCF:53:1,2016-01-02T15:45:00Z,26.6493,-81.8810,79.7,1111122 
SCCF RECON,ioos:station:SCCF:53:1,2016-01-02T16:00:00Z,26.6493,-81.8810,77.8,1111122 
SCCF RECON,ioos:station:SCCF:53:1,2016-01-02T16:15:00Z,26.6493,-81.8810,76.9,1111122 
SCCF RECON,ioos:station:SCCF:53:1,2016-01-02T16:30:00Z,26.6493,-81.8810,77.6,1111122 
SCCF RECON,ioos:station:SCCF:53:1,2016-01-02T16:45:00Z,26.6493,-81.8810,77.7,1111122 
SCCF RECON,ioos:station:SCCF:53:1,2016-01-02T17:00:00Z,26.6493,-81.8810,77.2,1111122 
SCCF RECON,ioos:station:SCCF:53:1,2016-01-02T17:15:00Z,26.6493,-81.8810,76.1,1111122 
SCCF RECON,ioos:station:SCCF:53:1,2016-01-02T17:30:00Z,26.6493,-81.8810,76.6,1111122 
SCCF RECON,ioos:station:SCCF:53:1,2016-01-02T17:45:00Z,26.6493,-81.8810,77.7,1111122 
SCCF RECON,ioos:station:SCCF:53:1,2016-01-02T18:00:00Z,26.6493,-81.8810,78.5,1111122 
SCCF RECON,ioos:station:SCCF:53:1,2016-01-02T18:15:00Z,26.6493,-81.8810,76.2,1111122 
SCCF RECON,ioos:station:SCCF:53:1,2016-01-02T18:30:00Z,26.6493,-81.8810,75.8,1111122 
SCCF RECON,ioos:station:SCCF:53:1,2016-01-02T18:45:00Z,26.6493,-81.8810,76.4,1111122 
SCCF RECON,ioos:station:SCCF:53:1,2016-01-02T19:00:00Z,26.6493,-81.8810,78.6,1111122 
SCCF RECON,ioos:station:SCCF:53:1,2016-01-02T19:15:00Z,26.6493,-81.8810,78.4,1111122 
SCCF RECON,ioos:station:SCCF:53:1,2016-01-02T19:30:00Z,26.6493,-81.8810,78.5,1111122 
SCCF RECON,ioos:station:SCCF:53:1,2016-01-02T19:45:00Z,26.6493,-81.8810,77.1,1111122 
SCCF RECON,ioos:station:SCCF:53:1,2016-01-02T20:00:00Z,26.6493,-81.8810,77.1,1111122 
SCCF RECON,ioos:station:SCCF:53:1,2016-01-02T20:15:00Z,26.6493,-81.8810,79.4,1111122 
SCCF RECON,ioos:station:SCCF:53:1,2016-01-02T20:30:00Z,26.6493,-81.8810,79.4,1111122 
SCCF RECON,ioos:station:SCCF:53:1,2016-01-02T20:45:00Z,26.6493,-81.8810,77.4,1111122 
SCCF RECON,ioos:station:SCCF:53:1,2016-01-02T21:00:00Z,26.6493,-81.8810,76.3,1111122 
SCCF RECON,ioos:station:SCCF:53:1,2016-01-02T21:15:00Z,26.6493,-81.8810,77.7,1111122 
SCCF RECON,ioos:station:SCCF:53:1,2016-01-02T21:30:00Z,26.6493,-81.8810,77.2,1111122 
SCCF RECON,ioos:station:SCCF:53:1,2016-01-02T21:45:00Z,26.6493,-81.8810,77.3,1111122 
SCCF RECON,ioos:station:SCCF:53:1,2016-01-02T22:00:00Z,26.6493,-81.8810,78.6,1111122 
SCCF RECON,ioos:station:SCCF:53:1,2016-01-02T22:15:00Z,26.6493,-81.8810,79.0,1111122 
SCCF RECON,ioos:station:SCCF:53:1,2016-01-02T22:30:00Z,26.6493,-81.8810,79.2,1111122 
SCCF RECON,ioos:station:SCCF:53:1,2016-01-02T22:45:00Z,26.6493,-81.8810,79.9,1111122 
SCCF RECON,ioos:station:SCCF:53:1,2016-01-02T23:00:00Z,26.6493,-81.8810,80.1,1111122 
SCCF RECON,ioos:station:SCCF:53:1,2016-01-02T23:15:00Z,26.6493,-81.8810,80.8,1111122 
SCCF RECON,ioos:station:SCCF:53:1,2016-01-02T23:30:00Z,26.6493,-81.8810,80.7,1111122 
SCCF RECON,ioos:station:SCCF:53:1,2016-01-02T23:45:00Z,26.6493,-81.8810,82.0,1111122 
SCCF RECON,ioos:station:SCCF:53:1,2016-01-03T00:00:00Z,26.6493,-81.8810,82.0,1111122 
SCCF RECON,ioos:station:SCCF:53:1,2016-01-03T00:15:00Z,26.6493,-81.8810,82.7,1111122 
SCCF RECON,ioos:station:SCCF:53:1,2016-01-03T00:30:00Z,26.6493,-81.8810,82.8,1111122 
SCCF RECON,ioos:station:SCCF:53:1,2016-01-03T00:45:00Z,26.6493,-81.8810,83.9,1111122 
SCCF RECON,ioos:station:SCCF:53:1,2016-01-03T01:00:00Z,26.6493,-81.8810,83.8,1111122 
SCCF RECON,ioos:station:SCCF:53:1,2016-01-03T01:15:00Z,26.6493,-81.8810,84.2,1111122 
SCCF RECON,ioos:station:SCCF:53:1,2016-01-03T01:30:00Z,26.6493,-81.8810,83.6,1111122 
SCCF RECON,ioos:station:SCCF:53:1,2016-01-03T01:45:00Z,26.6493,-81.8810,83.4,1111122 
SCCF RECON,ioos:station:SCCF:53:1,2016-01-03T02:00:00Z,26.6493,-81.8810,83.1,1111122 
SCCF RECON,ioos:station:SCCF:53:1,2016-01-03T02:15:00Z,26.6493,-81.8810,82.5,1111122 
SCCF RECON,ioos:station:SCCF:53:1,2016-01-03T02:30:00Z,26.6493,-81.8810,84.1,1111122 
SCCF RECON,ioos:station:SCCF:53:1,2016-01-03T02:45:00Z,26.6493,-81.8810,84.8,1111122 
SCCF RECON,ioos:station:SCCF:53:1,2016-01-03T03:00:00Z,26.6493,-81.8810,85.1,1111122 
SCCF RECON,ioos:station:SCCF:53:1,2016-01-03T03:15:00Z,26.6493,-81.8810,83.2,1111122 
SCCF RECON,ioos:station:SCCF:53:1,2016-01-03T03:30:00Z,26.6493,-81.8810,82.0,1111122 
SCCF RECON,ioos:station:SCCF:53:1,2016-01-03T03:45:00Z,26.6493,-81.8810,82.2,1111122 
SCCF RECON,ioos:station:SCCF:53:1,2016-01-03T04:00:00Z,26.6493,-81.8810,82.2,1111122 
SCCF RECON,ioos:station:SCCF:53:1,2016-01-03T04:15:00Z,26.6493,-81.8810,82.0,1111122 
SCCF RECON,ioos:station:SCCF:53:1,2016-01-03T04:30:00Z,26.6493,-81.8810,82.2,1111122 
SCCF RECON,ioos:station:SCCF:53:1,2016-01-03T04:45:00Z,26.6493,-81.8810,81.3,1111122 
SCCF RECON,ioos:station:SCCF:53:1,2016-01-03T05:00:00Z,26.6493,-81.8810,82.2,1111122 
SCCF RECON,ioos:station:SCCF:53:1,2016-01-03T05:15:00Z,26.6493,-81.8810,82.1,1111122 
SCCF RECON,ioos:station:SCCF:53:1,2016-01-03T05:30:00Z,26.6493,-81.8810,83.6,1111122 
SCCF RECON,ioos:station:SCCF:53:1,2016-01-03T05:45:00Z,26.6493,-81.8810,83.9,1111122 
SCCF RECON,ioos:station:SCCF:53:1,2016-01-03T06:00:00Z,26.6493,-81.8810,85.3,1111122 
SCCF RECON,ioos:station:SCCF:53:1,2016-01-03T06:15:00Z,26.6493,-81.8810,86.4,1111122 
SCCF RECON,ioos:station:SCCF:53:1,2016-01-03T06:30:00Z,26.6493,-81.8810,85.5,1111122 
SCCF RECON,ioos:station:SCCF:53:1,2016-01-03T06:45:00Z,26.6493,-81.8810,85.9,1111122 
SCCF RECON,ioos:station:SCCF:53:1,2016-01-03T07:00:00Z,26.6493,-81.8810,86.7,1111122 
SCCF RECON,ioos:station:SCCF:53:1,2016-01-03T07:15:00Z,26.6493,-81.8810,86.1,1111122 
SCCF RECON,ioos:station:SCCF:53:1,2016-01-03T07:30:00Z,26.6493,-81.8810,84.8,1111122 
SCCF RECON,ioos:station:SCCF:53:1,2016-01-03T07:45:00Z,26.6493,-81.8810,84.8,1111122 
SCCF RECON,ioos:station:SCCF:53:1,2016-01-03T08:00:00Z,26.6493,-81.8810,85.1,1111122 
SCCF RECON,ioos:station:SCCF:53:1,2016-01-03T08:15:00Z,26.6493,-81.8810,84.8,1111122 
SCCF RECON,ioos:station:SCCF:53:1,2016-01-03T08:30:00Z,26.6493,-81.8810,83.7,1111122 
SCCF RECON,ioos:station:SCCF:53:1,2016-01-03T08:45:00Z,26.6493,-81.8810,83.7,1111122 
SCCF RECON,ioos:station:SCCF:53:1,2016-01-03T09:00:00Z,26.6493,-81.8810,83.4,1111122 
SCCF RECON,ioos:station:SCCF:53:1,2016-01-03T09:15:00Z,26.6493,-81.8810,83.2,1111122 
SCCF RECON,ioos:station:SCCF:53:1,2016-01-03T09:30:00Z,26.6493,-81.8810,82.5,1111122 
SCCF RECON,ioos:station:SCCF:53:1,2016-01-03T09:45:00Z,26.6493,-81.8810,83.2,1111122 
SCCF RECON,ioos:station:SCCF:53:1,2016-01-03T10:00:00Z,26.6493,-81.8810,83.3,1111122 
SCCF RECON,ioos:station:SCCF:53:1,2016-01-03T10:15:00Z,26.6493,-81.8810,83.1,1111122 
SCCF RECON,ioos:station:SCCF:53:1,2016-01-03T10:30:00Z,26.6493,-81.8810,83.1,1111122 
SCCF RECON,ioos:station:SCCF:53:1,2016-01-03T10:45:00Z,26.6493,-81.8810,83.5,1111122 
SCCF RECON,ioos:station:SCCF:53:1,2016-01-03T11:00:00Z,26.6493,-81.8810,83.4,1111122 
SCCF RECON,ioos:station:SCCF:53:1,2016-01-03T11:15:00Z,26.6493,-81.8810,82.3,1111122 
SCCF RECON,ioos:station:SCCF:53:1,2016-01-03T11:30:00Z,26.6493,-81.8810,82.7,1111122 
SCCF RECON,ioos:station:SCCF:53:1,2016-01-03T11:45:00Z,26.6493,-81.8810,82.0,1111122 
SCCF RECON,ioos:station:SCCF:53:1,2016-01-03T12:00:00Z,26.6493,-81.8810,81.4,1111122 
SCCF RECON,ioos:station:SCCF:53:1,2016-01-03T12:15:00Z,26.6493,-81.8810,81.3,1111122 
SCCF RECON,ioos:station:SCCF:53:1,2016-01-03T12:30:00Z,26.6493,-81.8810,80.7,1111122 
SCCF RECON,ioos:station:SCCF:53:1,2016-01-03T12:45:00Z,26.6493,-81.8810,80.6,1111122 
SCCF RECON,ioos:station:SCCF:53:1,2016-01-03T13:00:00Z,26.6493,-81.8810,78.1,1111122 
SCCF RECON,ioos:station:SCCF:53:1,2016-01-03T13:15:00Z,26.6493,-81.8810,78.4,1111122 
SCCF RECON,ioos:station:SCCF:53:1,2016-01-03T13:30:00Z,26.6493,-81.8810,79.4,1111122 
SCCF RECON,ioos:station:SCCF:53:1,2016-01-03T13:45:00Z,26.6493,-81.8810,78.5,1111122 
SCCF RECON,ioos:station:SCCF:53:1,2016-01-03T14:00:00Z,26.6493,-81.8810,77.9,1111122 
SCCF RECON,ioos:station:SCCF:53:1,2016-01-03T14:15:00Z,26.6493,-81.8810,78.4,1111122 
SCCF RECON,ioos:station:SCCF:53:1,2016-01-03T14:30:00Z,26.6493,-81.8810,78.4,1111122 
SCCF RECON,ioos:station:SCCF:53:1,2016-01-03T14:45:00Z,26.6493,-81.8810,78.2,1111122 
SCCF RECON,ioos:station:SCCF:53:1,2016-01-03T15:00:00Z,26.6493,-81.8810,77.2,1111122 
SCCF RECON,ioos:station:SCCF:53:1,2016-01-03T15:15:00Z,26.6493,-81.8810,78.6,1111122 
SCCF RECON,ioos:station:SCCF:53:1,2016-01-03T15:30:00Z,26.6493,-81.8810,78.1,1111122 
SCCF RECON,ioos:station:SCCF:53:1,2016-01-03T15:45:00Z,26.6493,-81.8810,76.7,1111122 
SCCF RECON,ioos:station:SCCF:53:1,2016-01-03T16:00:00Z,26.6493,-81.8810,76.1,1111122 
SCCF RECON,ioos:station:SCCF:53:1,2016-01-03T16:15:00Z,26.6493,-81.8810,75.4,1111122 
SCCF RECON,ioos:station:SCCF:53:1,2016-01-03T16:30:00Z,26.6493,-81.8810,75.2,1111122 
SCCF RECON,ioos:station:SCCF:53:1,2016-01-03T16:45:00Z,26.6493,-81.8810,74.8,1111122 
SCCF RECON,ioos:station:SCCF:53:1,2016-01-03T17:00:00Z,26.6493,-81.8810,73.0,1111122 
SCCF RECON,ioos:station:SCCF:53:1,2016-01-03T17:15:00Z,26.6493,-81.8810,73.7,1111122 
SCCF RECON,ioos:station:SCCF:53:1,2016-01-03T17:30:00Z,26.6493,-81.8810,72.5,1111122 
SCCF RECON,ioos:station:SCCF:53:1,2016-01-03T17:45:00Z,26.6493,-81.8810,73.5,1111122 
SCCF RECON,ioos:station:SCCF:53:1,2016-01-03T18:00:00Z,26.6493,-81.8810,75.0,1111122 
SCCF RECON,ioos:station:SCCF:53:1,2016-01-03T18:15:00Z,26.6493,-81.8810,74.9,1111122 
SCCF RECON,ioos:station:SCCF:53:1,2016-01-03T18:30:00Z,26.6493,-81.8810,77.7,1111122 
SCCF RECON,ioos:station:SCCF:53:1,2016-01-03T18:45:00Z,26.6493,-81.8810,80.9,1111122 
SCCF RECON,ioos:station:SCCF:53:1,2016-01-03T19:00:00Z,26.6493,-81.8810,84.3,1111122 
SCCF RECON,ioos:station:SCCF:53:1,2016-01-03T19:15:00Z,26.6493,-81.8810,87.1,1111122 
SCCF RECON,ioos:station:SCCF:53:1,2016-01-03T19:30:00Z,26.6493,-81.8810,89.0,1111122 
SCCF RECON,ioos:station:SCCF:53:1,2016-01-03T19:45:00Z,26.6493,-81.8810,92.1,1111122 
SCCF RECON,ioos:station:SCCF:53:1,2016-01-03T20:00:00Z,26.6493,-81.8810,94.5,1111122 
SCCF RECON,ioos:station:SCCF:53:1,2016-01-03T20:15:00Z,26.6493,-81.8810,94.5,1111122 
SCCF RECON,ioos:station:SCCF:53:1,2016-01-03T20:30:00Z,26.6493,-81.8810,94.7,1111122 
SCCF RECON,ioos:station:SCCF:53:1,2016-01-03T20:45:00Z,26.6493,-81.8810,95.0,1111122 
SCCF RECON,ioos:station:SCCF:53:1,2016-01-03T21:00:00Z,26.6493,-81.8810,95.2,1111122 
SCCF RECON,ioos:station:SCCF:53:1,2016-01-03T21:15:00Z,26.6493,-81.8810,95.8,1111122 